Regional Weather Roundup
Issued by NWS Sterling, VA

Home | Current Version | Previous Version | Graphics & Text | Print | Product List | Glossary On
Versions: 1 2 3 4 5 6 7 8 9 10 11 12 13 14 15 16 17 18 19 20 21 22 23 24 25 26 27 28 29 30 31 32 33 34 35 36 37 38 39 40 41 42 43 44 45 46 47 48 49 50
000
ASUS41 KLWX 301610
RWRLWX

REGIONAL WEATHER ROUNDUP
NATIONAL WEATHER SERVICE BALTIMORE MD/WASHINGTON DC
1200 PM EDT SAT AUG 30 2014

Note: "FAIR" indicates few or no clouds below 12,000 feet
with no significant weather and/or obstructions to visibility.
 TC=TEMPERATURE CELSIUS

 * =Non NWS site. Station does not report precipitation (e.g. rain,
    snow, etc.), thunder, or fog.

DCZ001-MDZ009-015-VAZ040>042-051-053>054-301700-
WASHINGTON METRO

CITY           SKY/WX    TMP DP  RH WIND       PRES   REMARKS
WASHINGTON NAT CLOUDY    78  64  61 S5        30.24S
DULLES         CLOUDY    75  65  70 S9        30.22F
ANDREWS AFB    CLOUDY    74  66  76 SE6       30.24S
QUANTICO       CLOUDY    76  67  73 S5        30.23F
COLLEGE PARK*  CLOUDY    77  64  65 SE5       30.23S
LEESBURG*      CLOUDY    77  70  78 S13       30.23F
MANASSAS*      CLOUDY    77  66  69 S12       30.22F
GAITHERSBURG*  CLOUDY    75  64  69 S8        30.27S

$$

MDZ006>007-011-014-301700-
BALTIMORE METRO

CITY           SKY/WX    TMP DP  RH WIND       PRES   REMARKS
BWI AIRPORT    CLOUDY    76  64  66 S8        30.23F
MD SCIENCE CTR   N/A     76  62  62 MISG      30.24F
ANNAPOLIS      CLOUDY    76  64  66 SE9       30.23F
FORT MEADE*    CLOUDY    73  64  73 S7        30.25S

$$

MDZ012-015-019>023-301700-
MARYLAND EASTERN SHORE

CITY           SKY/WX    TMP DP  RH WIND       PRES   REMARKS
OCEAN CITY     CLOUDY    77  63  61 S6        30.26S
SALISBURY      PTSUNNY   79  63  57 SE6       30.25S
BAY BRIDGE AP*   N/A     75  59  57 SE8       30.24S
CAMBRIDGE*     PTSUNNY   79  59  50 SE8       30.23S
EASTON*        PTSUNNY   77  63  61 S6        30.28S

$$

MDZ017>025-301700-
SOUTHERN MARYLAND

CITY           SKY/WX    TMP DP  RH WIND       PRES   REMARKS
PATUXENT RIVER CLOUDY    77  65  66 SE8       30.23F
ST INIGOES     CLOUDY    78  64  61 SE7       30.22F
LEONARDTOWN*   CLOUDY    77  63  61 SE8       30.25S

$$

MDZ003>005-301700-
NORTH CENTRAL MARYLAND

CITY           SKY/WX    TMP DP  RH WIND       PRES   REMARKS
FREDERICK*     CLOUDY    77  68  73 S7        30.24F
HAGERSTOWN APT CLOUDY    74  65  73 S13       30.20F
WESTMINSTER*   CLOUDY    73  64  73 S9        30.24S

$$

MDZ501>502-301700-
WESTERN MARYLAND

CITY           SKY/WX    TMP DP  RH WIND       PRES   REMARKS
OAKLAND*       CLOUDY    72  68  88 SW8       30.26S
CUMBERLAND*    SUNNY     81  63  54 CALM      30.22S

$$

VAZ025>031-301700-
SHENANDOAH VALLEY

CITY           SKY/WX    TMP DP  RH WIND       PRES   REMARKS
WINCHESTER*    MOSUNNY   79  64  61 SE3       30.19F
STAUNTON*      PTSUNNY   83  67  58 S9        30.23F

$$

WVZ021-048>050-054>055-301700-
EASTERN WEST VIRGINIA PANHANDLE

CITY           SKY/WX    TMP DP  RH WIND       PRES   REMARKS
MARTINSBURG    PTSUNNY   78  64  61 SE9       30.20F
PETERSBURG*    NOT AVBL

$$

VAZ036>039-050-301700-
CENTRAL FOOTHILLS

CITY           SKY/WX    TMP DP  RH WIND       PRES   REMARKS
CHARLOTTESVILL CLOUDY    75  68  78 SW5       30.22F
ORANGE*        PTSUNNY   77  68  73 SE6       30.23F

$$

VAZ055>057-301700-
NORTH AND CENTRAL PIEDMONT

CITY           SKY/WX    TMP DP  RH WIND       PRES   REMARKS
FREDERICKSBRG* CLOUDY    80  67  64 S7        30.22S
STAFFORD*      CLOUDY    76  67  75 S3        30.26F

$$

NCZ024-NYZ072-PAZ021-071-VAZ022-071-301700-
OTHER REGIONAL OBSERVATIONS

CITY           SKY/WX    TMP DP  RH WIND       PRES   REMARKS
NEW YORK CITY  SUNNY     79  56  45 S6        30.27F
PHILADELPHIA   CLOUDY    76  62  62 SW9       30.25S
PITTSBURGH     PTSUNNY   78  67  68 S10       30.12F
ROANOKE        PTSUNNY   79  70  74 VRB5      30.24F
RICHMOND       CLOUDY    81  68  64 SE9       30.22F
RALEIGH        MOSUNNY   83  72  69 CALM      30.23S

$$

ANZ530>537-301700-
MARINE OBSERVATIONS

STATION/POSITION TIME  TEMP    WIND        PRES
                       AIR SEA DIR/SP/G
                 (UTC) (F)     (DEG/KT/KT) (MB)
THOMAS PT LIGHT  1600   74 77  170/ 10/ 11 1024.7F
BALT KEY BRIDGE  1600   80     130/  6/  8 1023.5F
COVE POINT       1600   75     180/ 13/ 14 1023.8S
LEWISETTA        1600   77 78  170/  7/  9 1023.2F
SOLOMONS ISLAND  1600      78                N/A
PINEY POINT      1600          160/  8/ 10   N/A

$$



USA.gov is the U.S. government's official web portal to all federal, state and local government web resources and services.